User: anonymous   Login
Location: Owatonna
(44.0840°N, 93.2260°W)
Time: 01:37:56
(UTC-06:00)
Language:

Cosmos 1500 Rocket - Orbit

View from above orbital plane
View from above orbital plane
View from above satellite
View from above satellite

Ground track
Ground track

The orbit data is extracted from the following two-line orbital elements,

1 14373U 83099B   17344.38599894 +.00000077 +00000-0 +63878-5 0  9992
2 14373 082.5422 079.8913 0020366 009.7281 056.0393 14.83706270825902
Epoch (UTC): 10 December 2017 09:15:50
Eccentricity: 0.0020366
inclination: 82.5422°
perigee height: 603 km
apogee height: 632 km
right ascension of ascending node: 79.8913°
argument of perigee: 9.7281°
revolutions per day: 14.83706270
mean anomaly at epoch: 56.0393°
orbit number at epoch: 82590

The dashed part of the orbit path shows where the satellite is in the earth's shadow,  

DLR